Regional Weather Roundup
Issued by NWS Charleston, WV

Home | Current Version | Previous Version | Graphics & Text | Print | Product List | Glossary On
Versions: 1 2 3 4 5 6 7 8 9 10 11 12 13 14 15 16 17 18 19 20 21 22 23 24 25 26 27 28 29 30 31 32 33 34 35 36 37 38 39 40 41 42 43 44 45 46 47 48 49 50
000
ASUS41 KRLX 131410
RWRRLX
West Virginia Regional Weather Roundup
National Weather Service Charleston WV
1000 AM EDT SUN JUL 13 2014

Note: "fair" indicates few or no clouds below 12,000 feet with no
significant weather and/or obstructions to visibility.

WVZ003-131500-
Northern Panhandle of West Virginia

CITY           SKY/WX    TMP DP  RH WIND       PRES   REMARKS
WHEELING       PTSUNNY   76  64  66 SW14G24   30.00S
$$

WVZ009-131500-
Northwest West Virginia

CITY           SKY/WX    TMP DP  RH WIND       PRES   REMARKS
PARKERSBURG    CLOUDY    78  64  61 S12       30.05F
$$

WVZ006-131500-
Western West Virginia

CITY           SKY/WX    TMP DP  RH WIND       PRES   REMARKS
HUNTINGTON     CLOUDY    79  67  66 SW7       30.07R
$$

WVZ015-131500-
West Central West Virginia

CITY           SKY/WX    TMP DP  RH WIND       PRES   REMARKS
CHARLESTON     PTSUNNY   83  67  58 SW10      30.08S
$$

WVZ031-131500-
North Central West Virginia

CITY           SKY/WX    TMP DP  RH WIND       PRES   REMARKS
CLARKSBURG     MOSUNNY   79  62  56 SW12      30.07S
MORGANTOWN     PTSUNNY   81  61  50 SW8       30.06S
$$

WVZ035-042-045-131500-
South Central West Virginia

CITY           SKY/WX    TMP DP  RH WIND       PRES   REMARKS
BECKLEY        MOSUNNY   77  65  66 SW10      30.20S
BLUEFIELD      MOSUNNY   79  66  64 SW12      30.23S
LEWISBURG      MOSUNNY   79  65  61 SW7       30.18F
$$

WVZ047-131500-
Northern Mountains of West Virginia

CITY           SKY/WX    TMP DP  RH WIND       PRES   REMARKS
ELKINS         CLOUDY    76  63  64 S7        30.13F
$$

WVZ052-131500-
Eastern Panhandle of West Virginia

CITY           SKY/WX    TMP DP  RH WIND       PRES   REMARKS
MARTINSBURG    PTSUNNY   83  66  56 SW7       30.04S
PETERSBURG     MOSUNNY   82  60  48 SW7       30.06F
$$



USA.gov is the U.S. government's official web portal to all federal, state and local government web resources and services.